This is the latest recevied weather packets stored in our database for station/object JF7ELG-13. If no packets are shown the sender has not sent any weather packets the latest 10 day(s).
| Time | Temp. | Humidity | Pressure | Rain* | Wind** | Luminosity | Snow |
|---|---|---|---|---|---|---|---|
| 1777905234 | 12.78° C | 65% | 1004.2 hPa | 0 mm | - | - | - |
| 1777904329 | 13.33° C | 61% | 1003.7 hPa | 0 mm | - | - | - |
| 1777903419 | 13.33° C | 60% | 1002.6 hPa | 0 mm | - | - | - |
| 1777902506 | 13.89° C | 57% | 1001.3 hPa | 0 mm | - | - | - |
| 1777901598 | 14.44° C | 55% | 1000.7 hPa | 0 mm | - | - | - |
| 1777900718 | 14.44° C | 54% | 1000.5 hPa | 0 mm | - | - | - |
| 1777899834 | 15° C | 54% | 999.6 hPa | 0 mm | - | - | - |
| 1777898931 | 15° C | 53% | 998.8 hPa | 0 mm | - | - | - |
| 1777898014 | 15° C | 56% | 998.5 hPa | 0 mm | - | - | - |
| 1777897138 | 15° C | 56% | 998.2 hPa | 0 mm | - | - | - |
| 1777896229 | 15.56° C | 57% | 997.9 hPa | 0 mm | - | - | - |
| 1777895337 | 15.56° C | 56% | 997.5 hPa | 0 mm | - | - | - |
| 1777894396 | 16.11° C | 56% | 997.4 hPa | 0 mm | - | - | - |
| 1777893511 | 16.11° C | 56% | 996.9 hPa | 0 mm | - | - | - |
| 1777892599 | 16.67° C | 56% | 996.8 hPa | 0 mm | - | - | - |
| 1777891725 | 16.67° C | 56% | 996.6 hPa | 0 mm | - | - | - |
| 1777890812 | 16.67° C | 57% | 997 hPa | 0 mm | - | - | - |
| 1777889912 | 17.22° C | 57% | 996.8 hPa | 0 mm | - | - | - |
| 1777889004 | 17.22° C | 57% | 996.1 hPa | 0 mm | - | - | - |
| 1777888128 | 17.78° C | 56% | 996.2 hPa | 0 mm | - | - | - |
| 1777887198 | 17.78° C | 55% | 995.5 hPa | 0 mm | - | - | - |
| 1777886334 | 17.78° C | 55% | 995 hPa | 0 mm | - | - | - |
| 1777885422 | 17.78° C | 56% | 995 hPa | 0 mm | - | - | - |
| 1777884498 | 18.33° C | 55% | 994.8 hPa | 0 mm | - | - | - |
| 1777883626 | 18.89° C | 55% | 994.3 hPa | 0 mm | - | - | - |
* Rain latest hour (hover to see other rain measurements)
** Current wind speed in m/s (hover to see current wind gust speed)